Regional Weather Roundup
Issued by NWS

Home | Current Version | Previous Version | Text Only | Print | Product List | Glossary Off
Versions: 1 2 3 4 5 6 7 8 9 10 11 12 13 14 15 16 17 18 19 20 21 22 23 24 25 26 27 28 29 30 31 32 33 34 35 36 37 38 39 40 41 42 43 44 45 46 47 48 49 50

000
ASUS43 KOAX 180102
RWRNE

WEATHER ROUNDUP FOR NEBRASKA
NATIONAL WEATHER SERVICE OMAHA NE
800 PM CDT WED SEP 17 2014

NOTES: SATELLITE DATA IS BEING USED TO AUGMENT CLOUD COVER ABOVE
       12000 FEET.
       "FAIR" INDICATES FEW OR NO CLOUDS BELOW 12,000 FEET WITH NO
       SIGNIFICANT WEATHER AND/OR OBSTRUCTIONS TO VISIBILITY.

  * THESE STATIONS DO NOT REPORT WEATHER SUCH AS RAIN...SNOW OR FOG.

NEZ001>004-019>022-054>056-180200-
NEBRASKA PANHANDLE

CITY           SKY/WX    TMP DP  RH WIND       PRES   REMARKS
SCOTTSBLUFF    MOCLDY    80  48  32 CALM      29.93F
ALLIANCE       PTCLDY    70  49  47 E10       29.93R
CHADRON        PTCLDY    73  54  51 SE3       29.89R
KIMBALL        MOCLDY    75  42  30 E7        29.99F
SIDNEY         MOCLDY    78  45  30 SE7       29.99R
$$

NEZ057>060-069>072-079>082-180200-
SOUTHWEST NEBRASKA

CITY           SKY/WX    TMP DP  RH WIND       PRES   REMARKS
NORTH PLATTE   CLEAR     67  61  81 E9        29.90S
IMPERIAL       PTCLDY    76  59  55 SE10      29.90S
LEXINGTON      CLEAR     73  64  72 SE6       29.92R
MCCOOK         PTCLDY    75  61  61 E10       29.89R
OGALLALA       MOCLDY    76  61  59 E7        29.91R
$$

NEZ005>010-023>029-035>040-094-180200-
NORTH CENTRAL NEBRASKA

CITY           SKY/WX    TMP DP  RH WIND       PRES   REMARKS
VALENTINE      MOCLDY    71  55  56 E10       29.93S
AINSWORTH      MOCLDY    67  56  69 E6        29.95R
BROKEN BOW     CLEAR     71  61  70 E6        29.93R
O`NEILL        MOCLDY    69  60  75 NE8       29.94R
ORD            PTCLDY    72  62  71 SE6       29.91R
THEDFORD       PTCLDY    74  56  54 NE12G17   29.93R
$$

NEZ041-046>049-061>064-073>077-083>087-180200-
SOUTH CENTRAL NEBRASKA

CITY           SKY/WX    TMP DP  RH WIND       PRES   REMARKS
GRAND ISLAND   CLEAR     70  63  78 E6        29.91S
AURORA         CLEAR     68  64  86 E5        29.92R
HASTINGS       CLEAR     71  60  68 SE7       29.91R
HEBRON         CLEAR     70  62  76 CALM      29.90R
HOLDREGE       CLEAR     68  61  78 CALM      29.91R
KEARNEY *      CLEAR     68  61  77 E7        29.92R
YORK           CLEAR     66  63  88 E7        29.92R
$$

NEZ011>018-030>034-042>045-180200-
NORTHEAST NEBRASKA

CITY           SKY/WX    TMP DP  RH WIND       PRES   REMARKS
NORFOLK        PTCLDY    67  61  81 SE3       29.92R
ALBION         MOCLDY    69  61  76 E5        29.93R
BLAIR          CLEAR     71  62  73 E5        29.92R
COLUMBUS *     MOCLDY    70  61  73 E3        29.93R
FREMONT        CLEAR     72  63  73 CALM      29.92R
TEKAMAH        CLEAR     70  64  81 SE3       29.91R
WAYNE          CLEAR     65  60  82 N5        29.93R
$$

NEZ050>053-065>068-078-088>093-180200-
SOUTHEAST NEBRASKA

CITY           SKY/WX    TMP DP  RH WIND       PRES   REMARKS
LINCOLN        CLEAR     74  60  61 E7        29.91S
OMAHA EPPLEY   PTCLDY    72  62  71 E6        29.91R
BEATRICE       CLEAR     71  63  74 E3        29.91R
FALLS CITY     CLEAR     72  64  76 CALM      29.90R
NEBRASKA CITY  CLEAR     72  57  58 SE5       29.91R
PLATTSMOUTH    CLEAR     71  59  66 E3        29.91R
$$

NEZ044-045-051>053-067-180200-
OMAHA AREA

CITY           SKY/WX    TMP DP  RH WIND       PRES   REMARKS
OMAHA EPPLEY   PTCLDY    72  62  71 E6        29.91R
BLAIR          CLEAR     71  62  73 E5        29.92R
FREMONT        CLEAR     72  63  73 CALM      29.92R
MILLARD        CLEAR     69  64  83 CALM      29.91R
OFFUTT AFB     CLEAR     65  65 100 E2        29.90S
PLATTSMOUTH    CLEAR     71  59  66 E3        29.91R
WAHOO          FAIR      69  62  78 CALM      29.92R
$$



USA.gov is the U.S. government's official web portal to all federal, state and local government web resources and services.